When you browse on this site, cookies collect data to enhance your experience and personalize the content and advertising you see.
Visit our Privacy Policy to learn more. By continuing to use the site, you agree to this use of cookies and data.
  • în România
  • Lista ţărilor
  • Pe 7 zile
  • Temperatura apei
  • Hartă satelitară
  • Meteo pe hartă
  • Widget-uri
  • user-avatar
    Intrare

    Meteo pe oră la Shiraz

    Astăzi, 23 Ianuarie, Miercuri

    Timp Temperatura Precipitaţii Vânt Presiune Umiditate
    00:00 +7°C° 0 mm 1 m/s 634 mmHg 45%
    01:00 +6°C° 0 mm 1 m/s 634 mmHg 46%
    02:00 +6°C° 0 mm 1 m/s 634 mmHg 46%
    03:00 +6°C° 0 mm 1 m/s 633 mmHg 47%
    04:00 +5°C° 0 mm 1 m/s 633 mmHg 47%
    05:00 +5°C° 0 mm 1 m/s 633 mmHg 47%
    06:00 +5°C° 0 mm 1 m/s 634 mmHg 47%
    07:00 +5°C° 0 mm 1 m/s 634 mmHg 47%
    08:00 +6°C° 0 mm 1 m/s 634 mmHg 41%
    09:00 +8°C° 0 mm 1 m/s 635 mmHg 36%
    10:00 +8°C° 0 mm 0 m/s 636 mmHg 30%
    11:00 +10°C° 0 mm 1 m/s 636 mmHg 29%
    12:00 +12°C° 0 mm 1 m/s 636 mmHg 28%
    13:00 +13°C° 0 mm 1 m/s 636 mmHg 28%
    14:00 +13°C° 0 mm 2 m/s 636 mmHg 28%
    15:00 +13°C° 0 mm 3 m/s 636 mmHg 28%
    16:00 +13°C° 0 mm 3 m/s 636 mmHg 28%
    17:00 +12°C° 0 mm 3 m/s 636 mmHg 33%
    18:00 +12°C° 0 mm 2 m/s 636 mmHg 37%
    19:00 +9°C° 0 mm 2 m/s 635 mmHg 42%
    20:00 +9°C° 0 mm 2 m/s 636 mmHg 44%
    21:00 +8°C° 0 mm 2 m/s 636 mmHg 45%
    22:00 +9°C° 0 mm 1 m/s 636 mmHg 47%
    23:00 +8°C° 0 mm 1 m/s 636 mmHg 48%

    Mâine, 24 Ianuarie, Joi

    Timp Temperatura Precipitaţii Vânt Presiune Umiditate
    00:00 +8°C° 0 mm 1 m/s 636 mmHg 49%
    01:00 +7°C° 0 mm 1 m/s 636 mmHg 50%
    02:00 +7°C° 0 mm 1 m/s 636 mmHg 51%
    03:00 +7°C° 0 mm 1 m/s 635 mmHg 51%
    04:00 +6°C° 0 mm 1 m/s 635 mmHg 52%
    05:00 +5°C° 0 mm 0 m/s 635 mmHg 53%
    06:00 +5°C° 0 mm 0 m/s 636 mmHg 53%
    07:00 +4°C° 0 mm 0 m/s 636 mmHg 53%
    08:00 +6°C° 0 mm 0 m/s 637 mmHg 48%
    09:00 +8°C° 0 mm 0 m/s 638 mmHg 42%
    10:00 +10°C° 0 mm 1 m/s 639 mmHg 36%
    11:00 +11°C° 0 mm 1 m/s 639 mmHg 35%
    12:00 +12°C° 0 mm 1 m/s 639 mmHg 33%
    13:00 +13°C° 0 mm 1 m/s 638 mmHg 32%
    14:00 +14°C° 0 mm 1 m/s 638 mmHg 31%
    15:00 +14°C° 0 mm 1 m/s 638 mmHg 31%
    16:00 +14°C° 0 mm 2 m/s 638 mmHg 30%
    17:00 +13°C° 0 mm 1 m/s 638 mmHg 35%
    18:00 +12°C° 0 mm 1 m/s 638 mmHg 41%
    19:00 +11°C° 0 mm 1 m/s 638 mmHg 46%
    20:00 +11°C° 0 mm 1 m/s 638 mmHg 47%
    21:00 +10°C° 0 mm 1 m/s 638 mmHg 48%
    22:00 +9°C° 0 mm 1 m/s 638 mmHg 49%
    23:00 +9°C° 0 mm 1 m/s 638 mmHg 49%

    Poimâine, 25 Ianuarie, Vineri

    Timp Temperatura Precipitaţii Vânt Presiune Umiditate
    00:00 +9°C° 0 mm 1 m/s 637 mmHg 50%
    01:00 +8°C° 0 mm 1 m/s 637 mmHg 51%
    02:00 +8°C° 0 mm 1 m/s 637 mmHg 51%
    03:00 +7°C° 0 mm 1 m/s 637 mmHg 51%
    04:00 +7°C° 0 mm 1 m/s 636 mmHg 51%
    05:00 +7°C° 0 mm 1 m/s 636 mmHg 50%
    06:00 +6°C° 0 mm 1 m/s 636 mmHg 50%
    07:00 +5°C° 0 mm 0 m/s 637 mmHg 49%
    08:00 +7°C° 0 mm 0 m/s 637 mmHg 43%
    09:00 +9°C° 0 mm 0 m/s 638 mmHg 37%
    10:00 +10°C° 0 mm 0 m/s 639 mmHg 31%
    11:00 +13°C° 0 mm 1 m/s 639 mmHg 30%
    12:00 +14°C° 0 mm 1 m/s 639 mmHg 30%
    13:00 +15°C° 0 mm 1 m/s 639 mmHg 30%
    14:00 +15°C° 0 mm 2 m/s 639 mmHg 31%
    15:00 +16°C° 0 mm 2 m/s 639 mmHg 31%
    16:00 +16°C° 0 mm 2 m/s 638 mmHg 32%
    17:00 +15°C° 0 mm 2 m/s 638 mmHg 37%
    18:00 +14°C° 0 mm 2 m/s 638 mmHg 42%
    19:00 +13°C° 0 mm 2 m/s 638 mmHg 46%
    20:00 +12°C° 0 mm 1 m/s 638 mmHg 49%
    21:00 +11°C° 0 mm 1 m/s 638 mmHg 51%
    22:00 +11°C° 0 mm 1 m/s 638 mmHg 54%
    23:00 +10°C° 0 mm 1 m/s 638 mmHg 54%

    26 Ianuarie, Sâmbătă

    Timp Temperatura Precipitaţii Vânt Presiune Umiditate
    00:00 +10°C° 0 mm 1 m/s 638 mmHg 55%
    01:00 +10°C° 0 mm 1 m/s 637 mmHg 55%
    02:00 +9°C° 0 mm 1 m/s 637 mmHg 55%
    03:00 +9°C° 0 mm 1 m/s 637 mmHg 55%
    04:00 +9°C° 0 mm 1 m/s 637 mmHg 55%
    05:00 +8°C° 0 mm 1 m/s 637 mmHg 55%
    06:00 +8°C° 0 mm 1 m/s 637 mmHg 55%
    07:00 +8°C° 0 mm 1 m/s 637 mmHg 55%
    08:00 +10°C° 0 mm 1 m/s 638 mmHg 49%
    09:00 +11°C° 0 mm 1 m/s 639 mmHg 43%
    10:00 +12°C° 0 mm 0 m/s 640 mmHg 37%
    11:00 +14°C° 0 mm 1 m/s 641 mmHg 35%
    12:00 +15°C° 0 mm 1 m/s 641 mmHg 33%
    13:00 +18°C° 0 mm 1 m/s 641 mmHg 32%
    14:00 +17°C° 0 mm 2 m/s 640 mmHg 31%
    15:00 +17°C° 0 mm 2 m/s 640 mmHg 31%
    16:00 +18°C° 0 mm 3 m/s 640 mmHg 31%
    17:00 +16°C° 0 mm 2 m/s 640 mmHg 36%
    18:00 +15°C° 0 mm 2 m/s 639 mmHg 42%
    19:00 +14°C° 0 mm 1 m/s 639 mmHg 47%
    20:00 +13°C° 0 mm 1 m/s 639 mmHg 49%
    21:00 +13°C° 0 mm 1 m/s 639 mmHg 52%
    22:00 +12°C° 0 mm 1 m/s 640 mmHg 54%
    23:00 +11°C° 0 mm 1 m/s 639 mmHg 55%

    27 Ianuarie, Duminică

    Timp Temperatura Precipitaţii Vânt Presiune Umiditate
    00:00 +11°C° 0 mm 1 m/s 639 mmHg 55%
    01:00 +11°C° 0 mm 1 m/s 639 mmHg 56%
    02:00 +9°C° 0 mm 0 m/s 639 mmHg 57%
    03:00 +9°C° 0 mm 0 m/s 639 mmHg 57%
    04:00 +9°C° 0 mm 0 m/s 639 mmHg 58%
    05:00 +9°C° 0 mm 0 m/s 639 mmHg 57%
    06:00 +8°C° 0 mm 0 m/s 639 mmHg 56%
    07:00 +8°C° 0 mm 0 m/s 639 mmHg 56%
    08:00 +11°C° 0 mm 1 m/s 640 mmHg 50%
    09:00 +13°C° 0 mm 1 m/s 641 mmHg 44%
    10:00 +15°C° 0 mm 1 m/s 642 mmHg 38%
    11:00 +16°C° 0 mm 1 m/s 642 mmHg 36%
    12:00 +17°C° 0 mm 2 m/s 642 mmHg 35%
    13:00 +18°C° 0 mm 3 m/s 642 mmHg 33%
    14:00 +18°C° 0 mm 3 m/s 642 mmHg 34%
    15:00 +18°C° 0 mm 3 m/s 641 mmHg 34%
    16:00 +18°C° 0 mm 3 m/s 641 mmHg 34%
    17:00 +17°C° 0 mm 2 m/s 641 mmHg 39%
    18:00 +16°C° 0 mm 2 m/s 641 mmHg 45%
    19:00 +15°C° 0 mm 1 m/s 640 mmHg 50%
    20:00 +14°C° 0 mm 1 m/s 640 mmHg 52%
    21:00 +13°C° 0 mm 1 m/s 640 mmHg 53%
    22:00 +13°C° 0 mm 1 m/s 640 mmHg 55%
    23:00 +12°C° 0 mm 1 m/s 640 mmHg 56%

    28 Ianuarie, Luni

    Timp Temperatura Precipitaţii Vânt Presiune Umiditate
    00:00 +12°C° 0 mm 1 m/s 640 mmHg 56%
    01:00 +12°C° 0 mm 1 m/s 640 mmHg 57%
    02:00 +11°C° 0 mm 1 m/s 640 mmHg 57%
    03:00 +11°C° 0 mm 1 m/s 640 mmHg 58%
    04:00 +11°C° 0 mm 1 m/s 640 mmHg 58%
    05:00 +11°C° 0 mm 1 m/s 640 mmHg 58%
    06:00 +11°C° 0 mm 1 m/s 640 mmHg 58%
    07:00 +11°C° 0 mm 1 m/s 640 mmHg 58%
    08:00 +12°C° 0 mm 2 m/s 641 mmHg 54%
    09:00 +13°C° 0 mm 2 m/s 641 mmHg 50%
    10:00 +15°C° 0 mm 2 m/s 642 mmHg 46%
    11:00 +16°C° 0 mm 3 m/s 642 mmHg 43%
    12:00 +16°C° 0 mm 5 m/s 642 mmHg 39%
    13:00 +17°C° 0 mm 6 m/s 642 mmHg 36%
    14:00 +17°C° 0 mm 6 m/s 641 mmHg 38%
    15:00 +16°C° 0 mm 6 m/s 641 mmHg 40%
    16:00 +16°C° 0 mm 6 m/s 641 mmHg 42%
    17:00 +15°C° 0 mm 5 m/s 640 mmHg 47%
    18:00 +14°C° 0 mm 4 m/s 640 mmHg 51%
    19:00 +13°C° 0 mm 3 m/s 640 mmHg 56%
    20:00 +13°C° 0.1 mm 2 m/s 640 mmHg 58%
    21:00 +13°C° 0.1 mm 2 m/s 640 mmHg 61%
    22:00 +13°C° 0.1 mm 2 m/s 640 mmHg 63%
    23:00 +12°C° 0.1 mm 2 m/s 640 mmHg 64%
    Arată mai mult